Bierset, Belgium

3:27 AM CEST on July 27, 2017 (GMT +0200)
Liege

Weather History for EBLG - July, 2013

Change the Weather History Date:

Tuesday, July 9, 2013

  Actual Average Record
Temperature  
Mean Temperature 67 °F -  
Max Temperature 77 °F 70 °F 91 °F (2010)
Min Temperature 57 °F 55 °F 48 °F (1996)
Cooling Degree Days 2    
Growing Degree Days 17 (Base 50)    
Moisture  
Dew Point 58 °F    
Average Humidity 71    
Maximum Humidity 94    
Minimum Humidity 46    
Precipitation  
Precipitation 0.00 in - - ()
Sea Level Pressure  
Sea Level Pressure 30.28 in    
Wind  
Wind Speed 7 mph ()    
Max Wind Speed 13 mph    
Max Gust Speed -    
Visibility 8.4 miles    
Events      
Averages and records for this station are not official NWS values.
T = Trace of Precipitation, MM = Missing Value Source: Averaged Metar Reports

Daily Weather History Graph

Daily Weather History Graph

Search for Another Location

Airport or City:

Trip Planner

Search our weather history database for the weather conditions in past years. The results will help you decide how hot, cold, wet, or windy it might be!

Date:

Astronomy

Jul. 09, 2013 Rise Set
Actual Time 5:36 AM CEST 9:49 PM CEST
Civil Twilight 4:52 AM CEST 10:34 PM CEST
Nautical Twilight 3:47 AM CEST 11:37 PM CEST
Astronomical Twilight 2:15 AM CEST 1:11 AM CEST
Moon 7:00 AM CEST (7/9) 10:00 PM CEST (7/9)
Length of Visible Light 17h 41m
Length of Day
16h 13m
New Moon, 1% of the Moon is Illuminated
Jul 9
New Moon
Jul 16
First Quarter
Jul 22
Full
Jul 29
Last Quarter
Aug 6
New

Hourly Weather History & Observations

Time (CEST) Temp. Dew Point Humidity Pressure Visibility Wind Dir Wind Speed Gust Speed Precip Events Conditions
12:20 AM 64.4 °F 57.2 °F 77% 30.36 in - NNE 6.9 mph - N/A   Clear
12:50 AM 64.4 °F 57.2 °F 77% 30.36 in - NNE 4.6 mph - N/A   Clear
1:20 AM 62.6 °F 57.2 °F 82% 30.36 in - NNE 4.6 mph - N/A   Clear
1:50 AM 60.8 °F 57.2 °F 88% 30.36 in - NNE 5.8 mph - N/A   Clear
2:00 AM 62 °F 57 °F 79% 30.36 in 11 mi NNE 6.7 mph - -   Clear
2:20 AM 60.8 °F 57.2 °F 88% 30.36 in - NNE 6.9 mph - N/A   Clear
2:50 AM 60.8 °F 57.2 °F 88% 30.36 in - NNE 8.1 mph - N/A   Clear
3:20 AM 60.8 °F 57.2 °F 88% 30.33 in - NNE 8.1 mph - N/A   Clear
3:50 AM 59.0 °F 57.2 °F 94% 30.33 in - NE 10.4 mph - N/A   Clear
4:20 AM 59.0 °F 57.2 °F 94% 30.33 in - NE 9.2 mph - N/A   Clear
4:50 AM 59.0 °F 57.2 °F 94% 30.33 in - NE 6.9 mph - N/A   Clear
5:00 AM 59 °F 56 °F 88% 30.34 in 6 mi NE 6.7 mph - -   Clear
5:20 AM 59.0 °F 55.4 °F 88% 30.33 in - NE 8.1 mph - N/A   Clear
5:50 AM 57.2 °F 55.4 °F 94% 30.33 in 5.6 mi NE 5.8 mph - N/A   Unknown
6:20 AM 59.0 °F 55.4 °F 88% 30.33 in 5.6 mi NNE 5.8 mph - N/A   Unknown
6:50 AM 59.0 °F 55.4 °F 88% 30.33 in - NNE 5.8 mph - N/A   Clear
7:20 AM 59.0 °F 55.4 °F 88% 30.33 in - NNE 5.8 mph - N/A   Clear
7:50 AM 60.8 °F 55.4 °F 82% 30.33 in - NNE 6.9 mph - N/A   Clear
8:00 AM 60 °F 56 °F 83% 30.33 in 11 mi NNE 6.7 mph - -   Clear
8:20 AM 60.8 °F 55.4 °F 82% 30.33 in - NNE 8.1 mph - N/A   Clear
8:50 AM 62.6 °F 57.2 °F 82% 30.33 in - NNE 6.9 mph - N/A   Clear
9:20 AM 64.4 °F 57.2 °F 77% 30.33 in - NNE 5.8 mph - N/A   Clear
9:50 AM 64.4 °F 57.2 °F 77% 30.30 in - NNE 8.1 mph - N/A   Clear
10:20 AM 66.2 °F 57.2 °F 73% 30.30 in - NNE 6.9 mph - N/A   Clear
10:50 AM 69.8 °F 59.0 °F 68% 30.30 in - NNE 8.1 mph - N/A   Clear
11:00 AM 69 °F 58 °F 61% 30.30 in 12 mi NNE 8.9 mph - -  
11:20 AM 69.8 °F 59.0 °F 68% 30.30 in - North 8.1 mph - N/A   Clear
11:50 AM 69.8 °F 59.0 °F 68% 30.30 in - NNE 10.4 mph - N/A   Clear
12:20 PM 73.4 °F 60.8 °F 65% 30.30 in - NNE 10.4 mph - N/A   Clear
12:50 PM 73.4 °F 60.8 °F 65% 30.30 in - NNE 11.5 mph - N/A   Clear
1:20 PM 73.4 °F 59.0 °F 61% 30.27 in - NNE 11.5 mph - N/A   Clear
1:50 PM 75.2 °F 59.0 °F 57% 30.27 in - NNE 11.5 mph - N/A   Clear
2:00 PM 75 °F 58 °F 46% 30.26 in 12 mi NNE 11.2 mph - -  
2:20 PM 75.2 °F 59.0 °F 57% 30.27 in - NNE 12.7 mph - N/A   Clear
2:50 PM 75.2 °F 59.0 °F 57% 30.24 in - NNE 12.7 mph - N/A   Clear
3:20 PM 77.0 °F 60.8 °F 57% 30.24 in 6.2 mi NNE 11.5 mph - N/A   Partly Cloudy
3:50 PM 77.0 °F 60.8 °F 57% 30.24 in 6.2 mi NNE 12.7 mph - N/A   Partly Cloudy
4:20 PM 77.0 °F 60.8 °F 57% 30.24 in 6.2 mi NE 11.5 mph - N/A   Partly Cloudy
4:50 PM 77.0 °F 60.8 °F 57% 30.21 in 6.2 mi NNE 11.5 mph - N/A   Partly Cloudy
5:00 PM 78 °F 62 °F 48% 30.21 in 12 mi NNE 11.2 mph - -   Scattered Clouds
5:20 PM 77.0 °F 59.0 °F 54% 30.21 in 6.2 mi NNE 10.4 mph - N/A   Partly Cloudy
5:50 PM 77.0 °F 60.8 °F 57% 30.21 in 6.2 mi NNE 9.2 mph - N/A   Partly Cloudy
6:20 PM 77.0 °F 59.0 °F 54% 30.21 in 6.2 mi NNE 10.4 mph - N/A   Partly Cloudy
6:50 PM 75.2 °F 59.0 °F 57% 30.21 in 6.2 mi NNE 10.4 mph - N/A   Partly Cloudy
7:20 PM 75.2 °F 59.0 °F 57% 30.18 in 6.2 mi NNE 10.4 mph - N/A   Partly Cloudy
7:50 PM 75.2 °F 60.8 °F 61% 30.18 in 6.2 mi NNE 9.2 mph - N/A   Partly Cloudy
8:00 PM 75 °F 60 °F 50% 30.18 in 12 mi NNE 8.9 mph - -   Scattered Clouds
8:20 PM 73.4 °F 59.0 °F 61% 30.18 in - NNE 9.2 mph - N/A   Clear
8:50 PM 71.6 °F 60.8 °F 69% 30.18 in - NNE 8.1 mph - N/A   Clear
9:20 PM 69.8 °F 59.0 °F 68% 30.21 in - NNE 6.9 mph - N/A   Clear
9:50 PM 68.0 °F 57.2 °F 68% 30.21 in - NNE 6.9 mph - N/A   Clear
10:20 PM 66.2 °F 55.4 °F 68% 30.21 in - NNE 8.1 mph - N/A   Clear
10:50 PM 64.4 °F 55.4 °F 73% 30.21 in - NNE 8.1 mph - N/A   Clear
11:00 PM 65 °F 54 °F 60% 30.21 in 19 mi NNE 6.7 mph - -   Clear
11:20 PM 62.6 °F 53.6 °F 72% 30.21 in - NNE 5.8 mph - N/A   Clear
11:50 PM 62.6 °F 53.6 °F 72% 30.21 in - NNE 5.8 mph - N/A   Clear